Погода в Гавриловой Поляне

Россия / Самарская область     53°21′56″N   50°07′35″E
темп.,
°C
ветер,
м/с
пор.,
м/с
влажн.,
%
обл.,
%
осадки,
мм/ч
давл.,
гПа
погр.,
м
9 декабря, чт
чт901:00−2юв41293100 0.0 1028389
04:00−3юв41193100 0.0 1027371
07:00−3юв41191100 0.0 1026403
10:00−3вюв41186100 0.0 1026439
13:00−2юв41282100 0.0 1024513
16:00−2юв4887100 0.0 1024299
19:00−2вюв3890100 0.0 1024273
22:00−2в1392100 0.1 1024106
10 декабря, пт
пт1001:00−2всв1291100 0.0 102387
04:00−3св2393100 0.0 102482
07:00−2ссв2588100 0.0 1024201
10:00−2ссв3886100 0.0 1025320
13:00−1ссв4984100 0.0 1025415
16:00−2ссв51192100 0.0 1026469
19:00−3ссв61293100 0.0 1028489
22:00−4ссв6129099 0.0 1029485
11 декабря, сб
сб1101:00−6ссв6138822 0.0 1030394
04:00−7ссв613805 0.0 1031393
07:00−8ссв614805 0.0 1032429
10:00−8ссв514762 0.0 1033465
13:00−7ссв614710 0.0 1034500
16:00−7ссв513740 0.0 1035470
19:00−7св413740 0.0 1037434
22:00−8св411760 0.0 1038373
12 декабря, вс
вс1201:00−8св39802 0.0 1040246
04:00−9св37844 0.0 1041181
07:00−9св26854 0.0 1041140
10:00−8св24825 0.0 1043125
13:00−5в23700 0.0 1043187
16:00−7всв11855 0.0 104324
19:00−8всв11905 0.0 104422
22:00−8в11915 0.0 104415
13 декабря, пн
пн1301:00−9в11925 0.0 104416
04:00−9в11925 0.0 104416
07:00−9юв11925 0.0 104316
10:00−8ююв11845 0.0 104346
13:00−5ю12675 0.0 1042160
16:00−7ююв11845 0.0 104211
19:00−8ююв118936 0.0 104120
22:00−9ююв119047 0.0 104129